GW1277 Weather Reports


time (UTC)temp
C
wind
direction
speed
KPH
gust
KPH
rain 1hr
cm
rain 24hr
cm
rain mn
cm
humidity
%
barometer
mb
20260504202017 26 317 8.0 16.1 0.00 0.00 0.00 29 1007.8
20260504201535 25 31 3.2 14.5 0.00 0.00 0.00 28 1007.9
20260504201020 25 19 4.8 17.7 0.00 0.00 0.00 28 1007.9
20260504200514 25 350 4.8 17.7 0.00 0.00 0.00 26 1007.9
20260504200034 25 352 4.8 16.1 0.00 0.00 0.00 29 1008.0
20260504195516 25 360 1.6 11.3 0.00 0.00 0.00 30 1008.0
20260504195017 25 12 3.2 11.3 0.00 0.00 0.00 32 1007.9
20260504194535 25 223 3.2 17.7 0.00 0.00 0.00 30 1007.9
20260504194018 25 305 6.4 20.9 0.00 0.00 0.00 30 1008.0
20260504193518 25 333 16.1 20.9 0.00 0.00 0.00 33 1008.0
20260504193031 25 290 6.4 14.5 0.00 0.00 0.00 33 1008.0
20260504192516 25 319 8.0 14.5 0.00 0.00 0.00 33 1008.0
20260504192016 24 263 4.8 16.1 0.00 0.00 0.00 32 1008.0
20260504191537 24 298 4.8 16.1 0.00 0.00 0.00 31 1008.0
20260504191017 24 324 9.7 17.7 0.00 0.00 0.00 33 1008.0
20260504190516 24 331 6.4 17.7 0.00 0.00 0.00 30 1008.2
20260504190037 24 14 6.4 16.1 0.00 0.00 0.00 37 1008.1
20260504185514 24 348 8.0 17.7 0.00 0.00 0.00 38 1008.1
20260504185015 24 331 6.4 20.9 0.00 0.00 0.00 34 1008.2
20260504184530 23 333 14.5 20.9 0.00 0.00 0.00 37 1008.3
20260504184015 23 336 9.7 19.3 0.00 0.00 0.00 38 1008.3
20260504183517 23 336 12.9 19.3 0.00 0.00 0.00 37 1008.5
20260504183034 23 315 9.7 19.3 0.00 0.00 0.00 38 1008.5
20260504182516 23 317 9.7 17.7 0.00 0.00 0.00 39 1008.6
20260504182015 23 338 11.3 17.7 0.00 0.00 0.00 40 1008.6
20260504181542 23 360 9.7 20.9 0.00 0.00 0.00 39 1008.5
20260504181015 22 302 9.7 20.9 0.00 0.00 0.00 39 1008.5
20260504180515 22 304 4.8 14.5 0.00 0.00 0.00 39 1008.7
20260504180033 22 324 6.4 17.7 0.00 0.00 0.00 40 1008.8
20260504175515 21 324 9.7 17.7 0.00 0.00 0.00 42 1008.9
20260504175015 21 334 9.7 17.7 0.00 0.00 0.00 41 1008.8
20260504174530 21 352 6.4 16.1 0.00 0.00 0.00 45 1008.9
20260504174015 21 305 8.0 16.1 0.00 0.00 0.00 43 1009.0
20260504173515 21 330 6.4 14.5 0.00 0.00 0.00 43 1008.9
20260504173032 20 319 6.4 12.9 0.00 0.00 0.00 42 1009.1
20260504172514 20 349 6.4 12.9 0.00 0.00 0.00 43 1009.2
20260504172017 20 326 1.6 8.0 0.00 0.00 0.00 44 1009.2
20260504171535 20 319 3.2 9.7 0.00 0.00 0.00 46 1009.2
20260504171016 20 351 4.8 9.7 0.00 0.00 0.00 45 1009.2
20260504170517 19 341 4.8 14.5 0.00 0.00 0.00 44 1009.2
20260504151015 11 323 6.4 8.0 0.00 0.00 0.00 72 1010.0
20260504150513 11 330 4.8 8.0 0.00 0.00 0.00 74 1010.0
20260504141015 7 321 3.2 8.0 0.00 0.00 0.00 86 1009.9
20260504140512 6 336 4.8 8.0 0.00 0.00 0.00 87 1010.0
20260504130512 3 0 0.0 0.0 0.00 0.00 0.00 91 1009.8
20260504110516 5 0 0.0 1.6 0.00 0.00 0.00 89 1009.1
20260504100517 5 145 1.6 4.8 0.00 0.00 0.00 87 1008.9
20260504081538 6 76 0.0 3.2 0.00 0.00 0.00 85 1008.7
20260504081016 6 76 0.0 4.8 0.00 0.00 0.00 85 1008.7
20260504080516 6 0 1.6 6.4 0.00 0.00 0.00 85 1008.8
20260504050517 11 162 1.6 3.2 0.00 0.00 0.00 75 1008.5
20260504045516 12 0 0.0 3.2 0.00 0.00 0.00 73 1008.5
20260504045017 12 0 0.0 6.4 0.00 0.00 0.00 75 1008.3
20260504044542 12 0 0.0 9.7 0.00 0.00 0.00 75 1008.3
20260504044015 12 116 4.8 12.9 0.00 0.00 0.00 73 1008.3
20260504043515 12 130 4.8 12.9 0.00 0.00 0.00 72 1008.3
20260504043040 13 92 4.8 9.7 0.00 0.00 0.00 70 1008.3
20260504042516 13 163 1.6 6.4 0.00 0.00 0.00 69 1008.2
20260504042015 13 249 1.6 6.4 0.00 0.00 0.00 68 1008.3
20260504041535 13 115 1.6 6.4 0.00 0.00 0.00 67 1008.2
20260504041015 14 115 3.2 6.4 0.00 0.00 0.00 66 1008.1
20260504040519 14 169 3.2 6.4 0.00 0.00 0.00 65 1007.9
20260504040044 15 265 0.0 4.8 0.00 0.00 0.00 66 1008.1
20260504035516 15 265 1.6 8.0 0.00 0.00 0.00 66 1008.0
20260504035015 15 119 1.6 8.0 0.00 0.00 0.00 64 1007.9
20260504034533 15 169 4.8 8.0 0.00 0.00 0.00 63 1007.8
20260504034015 16 173 3.2 4.8 0.00 0.00 0.00 62 1007.7
20260504033515 16 123 1.6 3.2 0.00 0.00 0.00 63 1007.7
20260504033032 16 123 0.0 3.2 0.00 0.00 0.00 63 1007.6
20260504032516 16 98 0.0 3.2 0.00 0.00 0.00 62 1007.6
20260504032021 17 98 0.0 6.4 0.00 0.00 0.00 60 1007.5
20260504031532 17 98 3.2 6.4 0.00 0.00 0.00 57 1007.4
20260504031015 18 113 4.8 6.4 0.00 0.00 0.00 54 1007.4
20260504030515 18 184 1.6 6.4 0.00 0.00 0.00 52 1007.3
20260504030033 18 0 0.0 6.4 0.00 0.00 0.00 54 1007.3
20260504025515 19 184 1.6 6.4 0.00 0.00 0.00 52 1007.3
20260504025015 19 0 0.0 3.2 0.00 0.00 0.00 54 1007.3
20260504024530 20 0 0.0 4.8 0.00 0.00 0.00 52 1007.3
20260504024016 20 184 1.6 4.8 0.00 0.00 0.00 53 1007.1
20260504023515 21 184 3.2 4.8 0.00 0.00 0.00 54 1007.1
20260504023034 22 184 1.6 6.4 0.00 0.00 0.00 53 1007.2
20260504022515 23 184 3.2 6.4 0.00 0.00 0.00 50 1007.1
20260504022014 25 0 0.0 4.8 0.00 0.00 0.00 46 1007.1
20260504021534 25 0 0.0 6.4 0.00 0.00 0.00 45 1007.2
20260504021015 25 184 3.2 6.4 0.00 0.00 0.00 35 1007.2
20260504020514 26 184 3.2 4.8 0.00 0.00 0.00 35 1007.1
20260504020034 26 184 1.6 4.8 0.00 0.00 0.00 36 1007.1
20260504015515 27 192 1.6 3.2 0.00 0.00 0.00 35 1007.1
20260504015015 28 0 0.0 0.0 0.00 0.00 0.00 40 1007.2
20260504014535 28 0 0.0 1.6 0.00 0.00 0.00 34 1007.2
20260504014015 28 0 0.0 4.8 0.00 0.00 0.00 27 1007.3
20260504013515 28 0 0.0 6.4 0.00 0.00 0.00 27 1007.3
20260504013040 28 0 1.6 6.4 0.00 0.00 0.00 26 1007.3
20260504012518 28 312 1.6 6.4 0.00 0.00 0.00 26 1007.4
20260504012015 28 309 0.0 4.8 0.00 0.00 0.00 25 1007.4
20260504011536 28 309 0.0 6.4 0.00 0.00 0.00 24 1007.6
20260504011014 28 309 3.2 6.4 0.00 0.00 0.00 24 1007.5
20260504010518 28 314 1.6 6.4 0.00 0.00 0.00 24 1007.5
20260504010034 27 292 1.6 6.4 0.00 0.00 0.00 25 1007.6
20260504005516 27 317 3.2 8.0 0.00 0.00 0.00 29 1007.7
20260504005015 27 344 3.2 8.0 0.00 0.00 0.00 29 1007.8
20260504004532 27 346 4.8 8.0 0.00 0.00 0.00 31 1007.8
20260504004017 28 339 1.6 6.4 0.00 0.00 0.00 24 1007.9
20260504003515 27 303 1.6 12.9 0.00 0.00 0.00 27 1007.9
20260504003033 27 339 6.4 12.9 0.00 0.00 0.00 28 1008.0
20260504002515 27 326 6.4 12.9 0.00 0.00 0.00 24 1008.1
20260504002013 28 339 1.6 6.4 0.00 0.00 0.00 29 1008.1
20260504001533 28 330 3.2 6.4 0.00 0.00 0.00 24 1008.2
20260504001016 28 0 1.6 6.4 0.00 0.00 0.00 26 1008.3
20260504000516 28 65 1.6 9.7 0.00 0.00 0.00 24 1008.3
20260504000031 28 328 3.2 11.3 0.00 0.00 0.00 26 1008.3
20260503235515 28 309 4.8 11.3 0.00 0.00 0.00 22 1008.4
20260503235015 27 281 3.2 9.7 0.00 0.00 0.00 26 1008.5
20260503234533 27 352 4.8 9.7 0.00 0.00 0.00 24 1008.5
20260503234015 27 331 1.6 12.9 0.00 0.00 0.00 27 1008.5
20260503233515 27 313 3.2 12.9 0.00 0.00 0.00 24 1008.6
20260503233035 27 342 6.4 16.1 0.00 0.00 0.00 26 1008.7
20260503232515 27 305 8.0 16.1 0.00 0.00 0.00 25 1008.8
20260503232015 27 352 9.7 17.7 0.00 0.00 0.00 27 1008.8
20260503231534 27 18 9.7 17.7 0.00 0.00 0.00 29 1008.9
20260503231015 27 330 9.7 17.7 0.00 0.00 0.00 26 1009.0
20260503230517 27 360 8.0 16.1 0.00 0.00 0.00 26 1009.0
20260503230034 27 360 9.7 16.1 0.00 0.00 0.00 27 1009.2
20260503225517 27 13 8.0 29.0 0.00 0.00 0.00 28 1009.1
20260503225015 27 333 14.5 29.0 0.00 0.00 0.00 30 1009.3
20260503224534 27 329 14.5 22.5 0.00 0.00 0.00 26 1009.3
20260503224019 27 346 12.9 22.5 0.00 0.00 0.00 26 1009.5
20260503223515 27 333 4.8 20.9 0.00 0.00 0.00 30 1009.6
20260503223032 26 355 11.3 20.9 0.00 0.00 0.00 27 1009.7
20260503222515 26 21 14.5 20.9 0.00 0.00 0.00 29 1009.8
20260503222015 26 5 14.5 19.3 0.00 0.00 0.00 30 1009.8
20260503221531 26 5 12.9 22.5 0.00 0.00 0.00 29 1010.1
20260503221015 26 26 11.3 22.5 0.00 0.00 0.00 28 1010.1
20260503220515 26 26 11.3 22.5 0.00 0.00 0.00 27 1010.2
20260503220036 26 329 14.5 22.5 0.00 0.00 0.00 28 1010.3
20260503215516 26 40 12.9 22.5 0.00 0.00 0.00 32 1010.4
20260503215018 26 341 14.5 25.7 0.00 0.00 0.00 29 1010.4
20260503214537 26 351 16.1 25.7 0.00 0.00 0.00 28 1010.4
20260503214015 26 343 16.1 25.7 0.00 0.00 0.00 25 1010.5
20260503213515 26 360 11.3 22.5 0.00 0.00 0.00 27 1010.5
20260503213041 26 352 8.0 20.9 0.00 0.00 0.00 26 1010.6
20260503212516 26 360 4.8 19.3 0.00 0.00 0.00 28 1010.7
20260503212033 26 16 12.9 25.7 0.00 0.00 0.00 30 1010.8
20260503211537 26 351 14.5 25.7 0.00 0.00 0.00 28 1010.9
20260503211015 26 347 12.9 25.7 0.00 0.00 0.00 28 1010.9
20260503210519 26 11 8.0 22.5 0.00 0.00 0.00 29 1010.9
20260503210034 26 310 9.7 19.3 0.00 0.00 0.00 28 1011.0
20260503205515 25 24 9.7 19.3 0.00 0.00 0.00 28 1011.1
20260503205015 25 93 1.6 14.5 0.00 0.00 0.00 27 1011.1
20260503204533 25 52 4.8 17.7 0.00 0.00 0.00 26 1011.3
20260503204013 25 22 4.8 17.7 0.00 0.00 0.00 29 1011.3
20260503203515 25 5 9.7 17.7 0.00 0.00 0.00 29 1011.3
20260503203035 25 28 8.0 16.1 0.00 0.00 0.00 25 1011.4
20260503202515 25 352 4.8 19.3 0.00 0.00 0.00 26 1011.4